{"data":{"norad_id":48059,"epoch":"2026-09-20T00:55:54.708960Z","epoch_age_seconds":61853,"freshness":"FRESH","line1":"1 48059U 21025T   26263.03882765  .00000209  00000+0  53626-3 0  9999","line2":"2 48059  87.8913 301.3556 0001952 111.7796 248.3541 13.13469502266067","mean_motion":13.13469502,"eccentricity":0.0001952,"inclination_deg":87.8913,"raan_deg":301.3556,"arg_perigee_deg":111.7796,"mean_anomaly_deg":248.3541,"bstar":0.00053626,"rev_number":26606,"period_min":109.63330308068,"perigee_km":1208.2861589385,"apogee_km":1211.2484767842,"semimajor_km":7587.9043178614,"source":"CELESTRAK","updated_at":"2026-09-20T09:00:44.587478Z"}}